Powrót do katalogu

HUBBLE 7

AktywnyNaukaSSO
NORAD 64592·PAYLOAD·🇺🇸 United States

Wystrzelony Jun 23, 2025 z Vandenberg Space Force Base

Loading…

Następne Przeloty (najbliższe 24 godziny)

TLE

ŚwieżeSource: Space-Track

Epoka: Sep 14, 2026, 14:05 UTC

1 64592U 25135BS  26257.58708578  .00001408  00000-0  13844-3 0  9998
2 64592  97.7825  11.3520 0003953  64.7895 295.3734 14.93724878 67253

Śledź HUBBLE 7 w czasie rzeczywistym z AllMySat

Download on the App Store